Regional Weather Roundup
Issued by NWS

Home | Current Version | Previous Version | Graphics & Text | Print | Product List | Glossary On
Versions: 1 2 3 4 5 6 7 8 9 10 11 12 13 14 15 16 17 18 19 20 21 22 23 24 25 26 27 28 29 30 31 32 33 34 35 36 37 38 39 40 41 42 43 44 45 46 47 48 49 50
000
ASUS43 KFSD 212010
RWRSD

WEATHER ROUNDUP FOR SOUTH DAKOTA
NATIONAL WEATHER SERVICE SIOUX FALLS SD
200 PM CST SUN DEC 21 2014

NOTE: "FAIR" INDICATES FEW OR NO CLOUDS BELOW 12,000 FEET WITH NO
SIGNIFICANT WEATHER AND/OR OBSTRUCTIONS TO VISIBILITY.


SDZ001>005-009-010-012>017-212100-
NORTHWEST AND NORTH CENTRAL SOUTH DAKOTA

CITY           SKY/WX    TMP DP  RH WIND       PRES   REMARKS
BUFFALO          N/A     40  28  62 CALM      29.33F
FAITH            N/A     41  28  60 S7        29.39F
MOBRIDGE       SUNNY     42  29  59 S12       29.42F
$$

SDZ012>016-024>037-041>051-057-063-072>074-212100-
SOUTHWEST AND SOUTH CENTRAL SOUTH DAKOTA

CITY           SKY/WX    TMP DP  RH WIND       PRES   REMARKS
RAPID CTY ARPT CLOUDY    46  30  53 CALM      29.38F
PIERRE         SUNNY     33  28  81 SE10      29.43F WCI  25
CUSTER         CLOUDY    42  24  49 W10       29.39F
ELLSWORTH AFB  CLOUDY    46  27  46 NW6       29.38F
PHILIP         PTSUNNY   50  30  46 NE5       29.39F
PINE RIDGE     PTSUNNY   43  29  57 S13       29.41F
SPEARFISH      FAIR      45  27  49 NW10G17   29.42R
WINNER         FAIR      43  29  57 S15       29.45F
$$

SDZ004>011-016>023-039-040-212100-
NORTHEAST SOUTH DAKOTA

CITY           SKY/WX    TMP DP  RH WIND       PRES   REMARKS
ABERDEEN       CLOUDY    34  30  85 SE14      29.53F WCI  25
WATERTOWN      CLOUDY    32  31  96 S13       29.56F FOG     WCI  22
SISSETON         N/A     33  31  92 S16       29.58  WCI  23
$$

SDZ017-020-022-023-036>040-048>070-212100-
SOUTHEAST SOUTH DAKOTA

CITY           SKY/WX    TMP DP  RH WIND       PRES   REMARKS
SIOUX FALLS    CLOUDY    35  34  96 S15       29.63F FOG     WCI  25
HURON          CLOUDY    33  30  88 SE15G25   29.53F WCI  23
CHAMBERLAIN    SUNNY     35  30  83 SE9       29.47F WCI  27
MITCHELL       SUNNY     37  32  82 SE17      29.55F
YANKTON        PTSUNNY   37  34  87 SE15      29.61F
$$

ABBREVIATIONS USED IN REMARKS
   TC - TEMPERATURE IN CELSIUS
  WCI - WIND CHILL INDEX
   HX - HEAT INDEX
  VSB - VISIBILITY



USA.gov is the U.S. government's official web portal to all federal, state and local government web resources and services.